Location: Olsztyn
(53.7767°N, 20.4765°E)
Time: 07:27:41
(UTC+01:00)

Transit 4A - Pass Details

Date: 06 October 2022
Orbit: 871 x 972 km, 66.8° (Epoch: 06 December)

Event Time Altitude Azimuth Distance (km) Brightness Sun altitude
Exits shadow 23:24:57 13° 37° (NE) 2,392 10.3 -40.0°
Drops below altitude 10° 23:25:27 10° 38° (NE) 2,572 10.5 -40.0°
Sets 23:27:58 0° 42° (NE) 3,503 11.2 -40.2°
